Tracking 19709 objects as of 18-Jun-2019
HD Live streaming from Space Station
objects crossing your sky now

WESTFORD NEEDLES

Track WESTFORD NEEDLES now!
10-day predictions
WESTFORD NEEDLES is classified as:


NORAD ID: 5702
Int'l Code: 1963-014CU
Perigee: 2,194.7 km
Apogee: 5,024.2 km
Inclination: 86.9 °
Period: 165.4 minutes
Semi major axis: 9980 km
RCS: 0.1919 m2 (medium)
Launch date: May 9, 1963
Source: United States (US)
Launch site: AIR FORCE WESTERN TEST RANGE (AFWTR)
aabbcc
Your satellite tracking list
Your tracking list is empty




NASA's NSSDC Master Catalog

Two Line Element Set (TLE):
1  5702U 63014CU  19168.13051237  .00004350  00000-0  70431+0 0  9991
2  5702  86.8699  61.0293 1417493 104.1101 272.1006  8.70716586599267
Source of the keplerian elements: AFSPC